SCP
0 0 0 0 0 0 0 0 0 0 0 0 0 0 0 0 0 0 0 0 0 0 0 0 0 0 0 0 0 0 0 0 0 0 0 1 1 1 1 1 1 1 1
0 0 0 0 0 0 0 0 0 0 0 0 0 0 0 0 0 0 0 0 0 0 0 0 0 0 0 0 0 0 0 0 0 0 0 0 1 1 1 1 1 1 1
0 0 0 0 0 0 0 0 0 0 0 0 0 0 0 0 0 0 0 0 0 0 0 0 0 0 0 0 0 0 0 0 0 0 0 0 0 1 1 1 1 1 1
0 0 0 0 0 0 0 0 0 0 0 0 0 0 0 0 0 0 0 0 0 0 0 0 0 0 0 0 0 0 0 0 0 0 0 0 0 0 1 1 1 1 1
0 0 0 0 0 0 0 0 0 0 0 0 0 0 0 0 0 0 0 0 0 0 0 0 0 0 0 0 0 0 0 0 0 0 0 0 0 0 1 1 1 1 1
0 0 0 0 0 0 0 0 0 0 0 0 0 0 0 0 0 0 0 0 0 0 0 0 0 0 0 0 0 0 0 0 0 0 0 0 0 0 0 1 1 1 1
0 0 0 0 0 0 0 0 0 0 0 0 0 0 0 0 0 0 0 0 0 0 0 0 0 0 0 0 0 0 0 0 0 0 0 0 0 0 0 0 1 1 1
0 0 0 0 0 0 0 0 0 0 0 0 0 0 0 0 0 0 0 0 0 0 0 0 0 0 0 0 0 0 0 0 0 0 0 0 0 0 0 0 0 1 0
0 0 0 0 0 0 0 0 0 0 0 0 0 0 0 0 0 0 0 0 0 0 0 0 0 0 0 0 0 0 0 0 0 0 0 0 0 0 0 0 0 0 0
0 0 0 0 0 0 0 0 0 0 0 0 0 0 0 0 0 0 0 0 0 0 0 0 0 0 0 0 0 0 0 0 0 0 0 0 0 0 0 0 0 0 0
0 1 1 0 0 0 0 0 0 0 0 0 0 0 0 0 0 0 0 0 0 0 0 0 0 0 0 0 0 0 0 0 0 0 0 0 0 0 0 0 0 0 0
1 1 1 0 0 0 0 0 0 0 0 0 0 0 0 0 0 0 0 0 0 0 0 0 0 0 0 0 0 0 0 0 0 0 0 0 0 0 0 0 0 0 0
1 1 1 0 0 0 0 0 0 0 0 0 0 0 0 0 0 0 0 0 0 0 0 0 0 0 0 0 0 0 0 0 0 0 0 0 0 0 0 0 0 0 0
1 1 1 1 0 0 0 0 0 0 0 0 0 0 0 0 0 0 0 0 0 0 0 0 0 0 0 0 0 0 0 0 0 0 0 0 0 0 0 0 0 0 0
1 1 1 1 1 0 0 0 0 0 0 0 0 0 0 0 0 0 0 0 0 0 0 0 0 0 0 0 0 0 0 0 0 0 0 0 0 0 0 0 0 0 0
1 1 1 0 0 0 0 0 0 0 0 0 0 0 0 0 0 0 0 0 0 0 0 0 0 0 0 0 0 0 0 0 0 0 0 0 0 0 0 0 0 0 0
1 1 0 0 0 0 0 0 0 0 0 0 0 0 0 0 0 0 0 0 0 0 0 0 0 0 0 0 0 0 0 0 0 0 0 0 0 0 0 0 0 0 0
1 1 0 0 0 0 0 0 0 0 0 0 0 0 0 0 0 0 0 0 0 0 0 0 0 0 0 0 0 0 0 0 0 0 0 0 0 0 0 0 0 0 0
1 1 1 1 1 1 0 0 0 0 0 0 0 0 0 0 0 0 0 0 0 0 0 0 0 0 0 0 0 0 0 0 0 0 0 0 0 0 0 0 0 0 0
0 0 0 1 1 1 1 1 1 0 0 0 0 0 0 0 0 0 0 0 0 0 0 0 0 0 0 0 0 0 0 0 0 0 0 0 0 0 0 0 0 0 0
0 0 0 0 1 1 1 1 1 1 1 0 0 0 0 0 0 0 0 0 0 0 0 0 0 0 0 0 0 0 0 0 0 0 0 0 0 0 0 0 0 0 0
0 0 0 0 0 0 1 1 1 1 1 0 0 0 0 0 0 0 0 0 0 0 0 0 0 0 0 0 0 0 0 0 0 0 0 0 0 0 0 0 0 0 0
0 0 0 0 0 0 0 0 0 0 0 0 0 0 0 0 0 0 0 0 0 0 0 0 0 0 0 0 0 0 0 0 0 0 0 0 0 0 0 0 0 0 0
0 0 0 0 0 0 0 0 0 0 0 0 0 0 0 0 0 0 0 0 0 0 0 0 0 0 0 0 0 0 0 0 0 0 0 0 0 0 0 0 0 0 0
0 0 0 0 0 0 0 0 0 0 0 0 0 0 0 0 0 0 0 0 0 0 0 0 0 0 0 0 0 0 0 0 0 0 0 0 0 0 0 0 0 0 0
0 0 0 0 0 0 0 0 0 0 0 0 0 0 0 0 0 0 0 0 0 0 0 0 0 0 0 0 0 0 0 0 0 0 0 0 0 0 0 0 0 0 0
Wind_Speed
6 6 6 5 5 5 5 5 5 5 4 2 2 2 3 2 3 3 4 4 5 5 4 3 4 4 4 4 4 3 3 2 2 1 1 2 2 3 3 3 3 3 3
7 7 6 6 6 5 5 5 5 5 4 2 2 2 2 2 3 2 3 4 5 5 4 4 3 4 3 3 4 3 3 2 2 3 1 1 3 2 3 2 2 3 3
7 7 7 6 6 5 5 4 4 5 3 3 2 2 2 2 2 2 2 4 4 4 4 5 4 4 3 3 3 3 3 3 2 3 3 2 2 1 2 3 3 3 3
6 6 6 6 6 5 5 5 5 5 4 3 2 2 1 2 2 2 2 2 3 4 4 4 4 4 3 3 3 4 3 3 2 2 2 3 3 2 1 1 3 3 3
8 7 6 6 6 5 5 4 5 4 4 3 3 2 2 2 2 1 2 2 3 3 4 4 3 4 3 3 4 3 3 2 3 2 2 2 1 3 2 1 2 2 2
9 7 6 6 5 5 4 4 4 4 3 3 3 2 2 2 2 1 2 2 2 2 4 3 3 3 3 3 3 3 3 3 3 3 2 2 2 2 2 2 2 2 2
9 8 8 7 6 6 5 5 5 4 4 3 3 3 2 1 1 1 2 2 2 2 4 3 3 3 3 3 3 3 3 3 3 3 3 2 3 3 3 3 2 2 2
9 9 8 7 7 6 6 6 5 5 4 3 3 2 3 1 1 1 1 2 2 3 3 3 3 3 3 3 3 2 3 3 3 3 3 2 2 2 2 3 3 3 2
10 9 9 8 7 7 6 6 6 5 4 3 3 2 2 1 1 1 1 2 2 2 3 3 3 3 3 3 2 2 3 3 3 3 2 2 2 2 2 2 3 3 3
10 9 8 8 7 6 6 6 5 5 4 4 3 2 2 1 1 1 1 2 3 3 3 3 3 3 3 2 2 2 3 2 2 2 3 3 2 2 2 2 2 3 3
10 9 8 8 7 7 6 5 5 5 4 3 3 3 2 1 1 1 1 1 2 2 2 3 3 3 3 3 2 2 2 3 2 2 2 2 3 2 2 2 2 2 3
10 9 9 8 7 7 6 6 5 4 4 3 3 2 2 2 1 1 1 1 2 2 2 3 3 3 3 3 3 3 3 3 3 3 3 3 2 3 3 3 3 3 3
11 10 9 8 7 7 6 5 5 4 4 3 3 2 2 2 1 1 1 1 1 1 2 2 3 3 3 3 3 3 3 3 4 4 4 4 4 4 3 4 4 3 3
11 10 9 8 7 6 6 5 4 4 4 4 3 2 2 2 1 1 1 1 1 1 1 2 2 3 3 3 3 4 4 4 4 4 4 4 4 5 5 4 4 4 4
11 11 10 8 7 7 6 5 5 4 4 4 3 2 2 2 1 1 1 1 1 1 1 1 2 2 3 4 5 5 4 4 4 4 4 4 5 6 6 5 5 5 5
12 11 10 9 8 7 6 6 5 5 4 4 3 2 2 2 1 1 1 1 1 1 1 1 2 2 3 5 6 7 5 5 5 5 5 4 3 3 3 4 6 7 7
11 10 10 9 8 8 7 7 6 5 5 4 3 2 2 2 1 1 1 0 0 1 1 2 2 2 3 5 6 7 6 5 5 5 5 4 4 5 5 4 6 6 7
10 9 9 8 8 7 7 6 6 5 5 4 3 2 1 1 1 0 0 1 1 1 1 2 2 2 3 5 6 7 6 5 5 5 5 5 6 6 8 8 7 7 6
9 8 8 8 8 8 7 7 6 5 4 4 3 2 2 1 1 0 0 1 1 1 1 1 2 2 2 4 6 8 5 5 5 5 5 6 6 7 10 8 8 8 7
8 8 8 8 8 8 7 7 6 5 4 3 2 2 2 1 1 0 1 1 1 1 2 2 2 3 3 4 6 8 5 5 5 5 5 4 6 8 10 9 8 9 8
9 9 9 8 7 7 7 7 6 4 4 3 3 2 2 1 1 0 0 1 1 2 2 2 2 3 3 3 4 7 5 6 6 5 5 4 5 8 10 11 9 9 10
9 9 8 7 7 7 7 6 5 4 4 3 3 2 2 1 1 0 1 1 1 2 2 3 2 2 2 2 3 5 6 8 7 6 6 5 8 10 11 9 8 10 11
9 8 8 8 7 6 5 6 5 4 4 3 3 2 2 1 0 0 1 1 2 2 3 3 3 3 3 2 3 5 6 7 7 6 7 9 10 11 10 7 9 10 8
9 8 9 8 7 6 4 4 5 4 4 3 2 2 1 1 0 1 1 2 2 3 3 4 4 4 4 4 4 4 5 6 7 7 7 9 10 9 9 8 7 6 6
8 8 8 8 7 6 5 4 4 4 3 3 2 1 0 0 1 1 2 3 3 3 4 5 5 5 5 5 8 7 7 7 7 9 8 7 7 7 7 7 6 6 6
8 8 8 7 7 6 5 4 3 3 3 2 1 1 1 1 1 2 2 1 3 3 4 6 7 6 6 8 9 10 10 10 10 9 8 7 7 8 7 8 7 7 7
Wind_Direction
145 143 147 151 153 153 150 137 139 132 129 115 115 109 101 96 84 62 50 38 28 24 26 16 25 12 26 19 19 24 36 25 5 353 87 102 90 65 69 38 26 42 33
149 146 153 158 160 156 159 152 145 138 131 107 91 83 87 83 68 62 51 33 28 23 18 24 25 26 25 26 22 15 357 28 7 337 329 135 131 82 64 57 38 32 35
163 158 161 161 161 163 160 156 150 142 135 135 123 122 124 141 125 91 57 33 27 25 17 18 17 14 18 29 16 9 2 2 17 10 346 345 27 35 86 48 45 36 23
168 162 166 167 167 163 159 161 153 150 146 154 149 128 110 86 68 48 54 56 43 34 22 17 17 19 21 24 16 22 3 352 2 26 4 358 358 320 18 82 50 37 27
172 168 171 167 163 157 159 161 153 149 146 151 134 158 107 84 87 83 69 51 56 38 32 20 20 26 25 22 18 16 7 1 355 358 2 4 333 305 324 352 4 22 29
166 166 166 162 153 151 154 153 151 141 142 154 154 143 105 96 94 71 51 46 59 39 38 19 19 25 25 26 20 22 28 12 8 351 354 344 332 338 333 327 336 356 6
165 167 166 165 159 160 158 154 151 146 151 158 148 135 126 119 91 61 58 27 40 34 27 16 18 25 20 23 18 24 22 25 13 1 356 351 345 340 326 314 327 330 331
166 168 167 164 162 160 158 156 151 146 144 146 134 127 124 118 68 41 23 30 32 28 17 9 18 21 18 18 24 12 16 11 14 15 1 342 348 344 338 323 317 315 324
166 163 160 157 158 158 158 157 148 144 141 139 131 119 108 97 78 75 48 37 30 25 14 10 21 26 22 13 12 13 11 3 360 358 357 350 357 342 343 326 313 309 312
161 157 156 153 152 150 151 150 148 142 137 135 129 122 123 118 75 56 53 35 30 31 15 14 18 23 25 18 13 6 1 3 13 346 344 343 344 354 339 322 314 313 307
157 154 152 149 147 147 149 151 151 144 140 139 133 137 133 122 109 72 53 28 32 30 20 24 19 21 15 12 11 1 3 352 357 347 342 339 339 327 320 318 314 303 302
152 150 148 146 149 150 152 152 152 147 143 145 143 134 122 121 111 78 58 41 43 34 30 30 23 26 20 13 7 0 352 346 344 344 338 337 331 318 313 310 303 300 296
151 150 149 151 152 151 152 151 151 146 143 145 145 142 135 123 110 79 57 37 45 49 50 39 25 22 19 17 7 1 354 344 339 336 333 331 324 314 316 304 301 302 298
156 155 155 155 153 152 152 150 146 142 142 145 143 137 127 119 120 101 78 37 35 30 28 23 18 10 4 2 360 355 348 343 338 333 330 331 330 324 321 311 309 306 297
163 164 163 159 157 154 151 146 145 145 147 147 143 133 126 118 112 94 93 75 26 357 11 5 6 7 355 3 351 340 334 332 333 330 331 343 345 343 328 320 315 309 297
172 171 166 163 164 160 155 151 152 149 148 144 132 125 127 118 114 103 73 74 35 342 350 342 359 6 9 14 350 327 324 326 328 330 327 326 317 324 295 299 302 301 297
172 173 171 168 166 160 157 156 154 149 150 143 132 137 137 123 124 128 95 80 290 348 333 333 343 345 20 11 347 329 316 318 325 327 328 329 329 318 320 296 259 261 256
172 171 170 163 158 152 150 147 144 148 149 142 137 132 133 127 125 96 34 311 332 355 324 337 335 335 7 2 342 324 305 314 316 320 323 324 328 343 330 314 306 304 297
165 160 160 153 151 149 148 147 147 147 144 139 139 134 138 135 130 104 324 307 316 321 304 321 320 317 356 16 346 320 311 310 315 321 326 326 327 350 328 309 305 302 301
147 146 148 148 148 148 149 152 150 147 144 141 139 127 127 140 148 36 333 326 308 294 292 304 305 316 333 17 348 323 311 314 318 319 313 333 333 333 323 311 306 302 307
143 144 147 147 146 149 154 155 149 143 132 135 133 130 135 147 134 75 327 302 302 300 298 301 302 311 330 351 353 333 317 319 314 314 313 328 338 319 312 305 302 308 307
143 146 145 139 142 152 159 151 142 129 125 128 130 134 133 127 127 102 324 307 306 293 295 295 299 301 312 336 341 323 313 315 307 307 309 323 326 310 299 296 303 301 293
145 148 145 138 139 149 159 147 135 137 139 141 140 139 137 127 129 226 279 291 296 299 303 300 299 303 312 307 283 285 290 295 296 302 313 306 298 294 285 278 283 284 281
146 148 147 144 140 140 139 129 132 148 155 155 151 150 157 147 176 290 288 295 301 302 303 304 303 304 301 307 318 311 298 287 287 298 297 282 274 273 281 283 276 278 289
144 148 150 146 142 140 134 128 139 156 163 160 155 152 139 297 293 291 314 304 314 324 304 304 303 304 302 329 331 313 308 310 311 308 295 292 293 293 294 294 294 293 290
146 148 149 146 142 141 135 133 144 164 167 158 157 177 229 268 279 284 279 257 272 295 281 285 292 296 304 314 307 302 302 302 300 294 286 289 291 294 297 298 298 295 294